Regional Weather Roundup
Issued by NWS Mt. Holly, NJ

Home | Current Version | Previous Version | Text Only | Print | Product List | Glossary On
Versions: 1 2 3 4 5 6 7 8 9 10 11 12 13 14 15 16 17 18 19 20 21 22 23 24 25 26 27 28 29 30 31 32 33 34 35 36 37 38 39 40 41 42 43 44 45 46 47 48 49 50
000
ASUS41 KPHI 231810
RWRPHI

REGIONAL WEATHER ROUNDUP
NATIONAL WEATHER SERVICE MOUNT HOLLY NJ
200 PM EDT WED JUL 23 2014

NOTE:  "FAIR" INDICATES FEW OR NO CLOUDS BELOW 12,000 FEET WITH NO
SIGNIFICANT WEATHER AND/OR OBSTRUCTIONS TO VISIBILITY.

 * = STATION DOES NOT REPORT PRECIPITATION (E.G. RAIN, SNOW, ETC.)
        OR FOG.

NJZ015>026-231900-
SOUTHERN NEW JERSEY

CITY           SKY/WX    TMP DP  RH WIND       PRES   REMARKS
POMONA         SUNNY     86  73  65 S12G23    29.92S HX  93
6HR MIN TEMP:  73; 6HR MAX TEMP:  87;

RIO GRANDE*    SUNNY     84  72  65 S15       29.94F
MILLVILLE      MOSUNNY   86  73  65 S9        29.91F HX  93
WRIGHTSTOWN    PTSUNNY   89  72  56 SW15      29.87F HX  96
MOUNT HOLLY    MOSUNNY   89  71  55 SW9G18    29.89F HX  95
TRENTON        MOSUNNY   88  72  58 SW10      29.88F HX  94
6HR MIN TEMP:  72; 6HR MAX TEMP:  88;


$$
NJZ001>014-231900-
NORTHERN NEW JERSEY

CITY           SKY/WX    TMP DP  RH WIND       PRES   REMARKS
SUSSEX         SUNNY     89  73  59 S9        29.86F HX  97
ANDOVER*         N/A     86  71  60 VRB6      29.88F HX  91
MORRISTOWN     MOSUNNY   90  73  58 S9        29.88F HX  98
NEWARK         PTSUNNY   89  71  55 S10G20    29.86F HX  95
TETERBORO      PTSUNNY   92  71  50 S12       29.85F HX  98
CALDWELL       MOSUNNY   88  71  57 W7        29.87F HX  94
SOMERVILLE     PTSUNNY   88  73  61 S8        29.86F HX  95
ALLAIRE*       PTSUNNY   86  73  66 S9        29.89F HX  93
TOMS RIVER*    PTSUNNY   90  72  55 SW10      29.89F HX  96

$$
PAZ043-044-047-054-055-060>062-066>071-231900-
EASTERN PENNSYLVANIA

CITY           SKY/WX    TMP DP  RH WIND       PRES   REMARKS
PHILADELPHIA   PTSUNNY   89  70  53 SW12      29.89F HX  94
6HR MIN TEMP:  75; 6HR MAX TEMP:  89;

NORTH PHILA    PTSUNNY   89  70  53 SW13      29.90F HX  94
BLUE BELL      MOSUNNY   90  73  58 SW8       29.88F HX  98
DOYLESTOWN     PTSUNNY   87  72  60 SW8       29.89S HX  93
QUAKERTOWN*    PTSUNNY   90  72  55 S8        29.90F HX  96
POTTSTOWN      PTSUNNY   88  70  55 SW9       29.90F HX  93
LANCASTER      MOSUNNY   88  71  57 SW10      29.88F HX  94
COATESVILLE    LGT RAIN  84  73  70 S6        29.93F HX  91
READING        MOSUNNY   90  73  57 SW8       29.87F HX  98
6HR MIN TEMP:  76; 6HR MAX TEMP:  90;

ALLENTOWN      MOSUNNY   89  71  55 SW9       29.88F HX  95
6HR MIN TEMP:  75; 6HR MAX TEMP:  89;

MOUNT POCONO   PTSUNNY   81  69  67 SW12      29.95F
6HR MIN TEMP:  69; 6HR MAX TEMP:  84;

HAZLETON       MOSUNNY   84  68  58 SW6       29.95F
WILKES BARRE   SUNNY     91  66  43 W12G21    29.87F HX  93

$$
DEZALL-MDZ008-012-015-019-020-231900-
DELAWARE AND EASTERN MARYLAND

CITY           SKY/WX    TMP DP  RH WIND       PRES   REMARKS
WILMINGTON     MOSUNNY   89  74  60 S9        29.90F HX  98
6HR MIN TEMP:  75; 6HR MAX TEMP:  90;

DOVER          MOSUNNY   90  75  62 S10       29.90F HX 100
GEORGETOWN     MOSUNNY   89  72  56 S13       29.93F HX  96
6HR MIN TEMP:  73; 6HR MAX TEMP:  89;

EASTON         MOSUNNY   90  73  58 SW12      29.96F HX  98
PATUXENT       MOSUNNY   89  72  56 VRB6      29.92F HX  96
OCEAN CITY     SUNNY     83  75  77 S8        29.95F HX  90
WALLOPS ISLAND MOSUNNY   86  75  69 S13       29.96F HX  95
CAMBRIDGE      SUNNY     90  70  51 SW10      29.92F HX  95

$$
PAZ001-021-NYZ056-072-MDZ011-DCZ001-231900-
OTHER NEARBY LOCATIONS

CITY           SKY/WX    TMP DP  RH WIND       PRES   REMARKS
HARRISBURG     MOSUNNY   92  71  50 VRB5      29.86F HX  98
STATE COLLEGE  PTSUNNY   86  70  58 W7        29.91F HX  90
WILLIAMSPORT   PTSUNNY   90  69  50 W12       29.84F HX  94
BINGHAMTON     MOSUNNY   84  68  58 W10       29.88F
NEW YORK CITY  PTSUNNY   85  72  65 SW7       29.90F HX  91
BALTIMORE      MOSUNNY   89  70  53 SW9       29.89F HX  94
WASHINGTON DC  MOSUNNY   91  73  55 S13       29.90F HX  99

$$



USA.gov is the U.S. government's official web portal to all federal, state and local government web resources and services.